Theta_e
337 346 347 344 343 343 343 343 343 343 343 344 345 345 345 344 345 343 342 342 345 341 333 340 335 333 333 335 335 335 334 327 325 328 334 335 328 329 334 332 331 335 333
346 347 345 345 345 343 345 343 344 344 343 343 343 344 346 345 345 345 342 339 339 340 337 335 338 330 329 329 333 334 333 335 328 325 327 329 331 330 331 336 333 330 333
339 343 344 345 346 347 349 346 344 346 345 345 345 343 344 344 344 344 341 338 335 335 335 336 339 332 329 337 338 336 333 333 335 327 327 326 326 329 332 332 332 330 329
345 345 344 343 343 345 345 345 347 345 346 347 345 345 345 346 345 344 343 345 340 338 338 339 339 336 334 336 338 338 336 333 336 334 331 332 331 330 329 331 332 332 333
348 344 343 345 344 346 345 345 347 346 345 346 345 346 347 347 346 346 346 344 341 340 339 339 341 340 337 337 338 338 333 337 336 336 336 334 330 330 332 330 331 333 334
350 344 344 344 345 345 345 347 346 346 345 345 344 343 340 343 343 344 345 345 342 340 338 341 341 341 338 337 340 340 338 337 336 334 335 336 337 336 332 333 330 330 333
351 347 345 345 346 347 349 349 348 348 346 346 345 344 344 343 341 344 345 345 343 339 339 342 342 341 340 338 340 339 339 336 335 336 335 335 336 335 337 336 334 335 332
352 345 346 347 348 350 351 350 349 350 347 348 347 347 344 344 341 341 343 342 343 343 341 345 345 344 340 336 340 340 339 337 336 337 336 334 337 339 339 337 335 335 335
348 346 347 351 350 349 348 348 348 347 346 348 348 346 346 346 343 342 343 342 343 342 342 343 344 344 342 341 337 338 340 339 338 339 337 336 339 339 339 337 337 335 334
348 347 348 349 349 350 348 348 348 346 348 346 348 348 347 345 340 341 344 342 341 340 342 344 343 345 342 344 342 341 337 335 340 340 340 340 340 341 340 339 336 335 334
346 344 347 346 348 348 350 348 348 349 348 347 346 346 346 345 345 343 344 343 341 342 341 341 341 344 342 344 341 345 338 342 342 341 340 340 341 341 341 341 339 338 337
346 346 343 340 341 343 346 348 347 347 347 347 346 345 346 345 345 343 344 344 343 341 339 340 341 343 340 341 345 343 341 342 342 342 341 340 341 341 341 341 340 340 338
347 347 345 343 347 346 345 343 347 348 346 345 345 345 347 343 342 342 344 344 343 340 338 337 338 339 340 340 341 344 343 339 342 343 342 341 341 340 339 340 341 341 341
348 347 349 348 347 347 346 347 347 346 345 345 344 345 344 344 344 342 342 342 343 342 340 339 338 339 340 342 343 342 341 340 342 341 341 339 338 338 338 337 337 338 339
348 349 350 347 346 339 340 345 341 340 342 342 343 342 342 342 342 342 342 341 342 342 342 339 337 336 339 333 338 338 338 338 338 337 337 338 338 337 337 336 335 335 336
346 347 347 346 343 330 335 342 346 339 341 341 341 340 339 339 340 340 341 340 340 341 339 339 337 337 336 335 337 339 333 337 335 335 334 331 329 326 326 325 324 323 321
346 345 345 343 339 331 334 341 341 341 340 339 339 339 337 335 337 338 339 339 339 339 340 339 338 337 337 338 338 335 333 329 337 335 336 338 337 336 333 333 334 333 332
335 341 344 343 340 334 338 339 339 340 338 338 336 336 334 334 333 331 332 335 336 336 335 337 337 336 337 334 333 335 334 336 339 339 337 336 336 335 333 334 334 332 331
345 344 344 343 340 339 339 338 337 336 336 334 332 330 328 329 326 328 326 326 327 329 329 332 334 334 334 333 333 333 334 336 337 336 333 333 332 332 332 332 333 332 332
345 343 342 340 339 338 337 336 336 335 333 331 328 319 313 310 310 323 322 320 318 317 320 320 319 319 320 324 328 332 334 334 333 333 332 332 333 333 331 332 333 330 324
340 340 339 338 337 335 332 331 330 323 324 323 322 319 316 316 312 310 309 309 309 309 310 314 317 318 320 321 320 319 320 320 320 324 330 330 328 326 327 332 325 325 326
339 338 337 335 335 330 326 312 316 321 321 322 321 321 320 319 318 318 310 310 313 315 314 312 313 315 316 317 318 319 319 320 320 319 317 319 320 320 320 320 321 324 323
336 335 334 332 330 324 311 310 313 322 321 321 320 319 319 320 320 318 314 308 310 315 315 315 316 316 317 316 315 313 311 313 316 317 319 318 311 312 315 316 315 320 321
333 330 326 322 327 326 314 311 311 317 322 322 321 319 318 318 317 316 314 313 310 306 311 313 313 313 313 314 315 314 311 312 311 309 310 314 315 317 318 314 312 312 314
322 315 322 324 325 326 319 311 311 313 320 321 321 321 320 320 320 318 315 312 312 307 308 313 314 313 313 312 310 313 314 314 315 315 315 316 319 320 320 318 318 320 319
313 325 325 325 324 320 322 317 312 312 314 317 318 316 315 320 319 315 312 310 309 311 311 310 309 311 313 314 313 314 314 314 315 316 315 317 316 317 317 319 320 321 321
Wind_Speed
5 4 10 11 12 13 13 14 13 14 15 17 20 15 14 13 15 19 17 17 12 16 20 17 17 20 19 19 19 16 15 14 14 13 13 12 11 10 10 9 8 8 8
7 11 15 15 15 14 11 13 15 16 19 13 16 16 16 19 20 20 20 22 23 17 23 25 22 22 25 23 23 22 19 17 17 16 15 14 12 12 12 12 11 11 10
15 17 16 17 18 15 16 15 15 16 17 17 14 16 17 22 24 28 22 22 23 25 25 29 23 22 24 24 25 27 26 21 22 19 18 15 14 13 13 13 13 11 11
15 15 15 15 15 17 17 16 16 15 14 12 13 17 18 24 29 30 26 26 24 24 23 22 26 27 27 26 27 28 27 25 25 22 20 18 15 14 13 13 13 13 12
18 16 13 11 13 10 11 15 18 18 16 14 12 14 16 15 23 24 28 31 29 26 25 22 23 23 27 29 28 28 27 27 27 23 21 21 20 17 15 14 14 13 13
20 17 17 20 15 12 11 12 15 12 14 13 13 12 12 13 17 23 22 21 28 27 25 23 18 25 26 29 31 28 28 26 28 24 23 21 20 20 18 17 16 15 14
23 23 21 14 13 11 7 9 11 12 11 11 15 16 18 18 17 17 18 15 20 22 22 22 22 24 22 27 29 28 28 28 27 23 23 22 22 22 22 21 20 18 17
18 21 19 12 10 10 10 11 12 13 12 9 10 11 10 11 8 12 13 17 18 18 21 19 18 23 24 34 33 28 27 28 26 23 23 23 22 24 24 24 23 22 20
24 21 18 15 11 10 10 9 10 12 13 12 11 10 6 6 13 12 13 10 8 10 15 20 21 21 22 20 30 27 27 26 28 22 24 23 20 21 22 23 25 23 22
17 17 17 8 12 9 9 8 10 13 13 11 11 13 13 16 8 8 9 9 8 11 10 10 14 21 23 22 27 29 22 26 27 23 22 22 23 21 20 22 23 23 23
17 13 4 4 7 7 9 8 10 10 12 13 12 13 13 13 12 10 13 9 9 10 10 12 8 13 16 19 28 17 16 19 26 25 23 23 23 20 19 20 20 21 22
12 2 4 5 7 9 11 10 10 11 11 11 10 11 11 10 13 10 10 11 13 10 8 10 10 10 13 24 13 12 16 18 23 21 20 21 20 18 18 18 19 20 21
4 6 7 9 10 8 8 9 8 7 7 6 6 7 8 10 11 9 10 12 13 12 5 5 4 9 9 9 10 12 16 17 12 15 17 19 17 16 16 17 18 19 20
4 7 6 6 6 4 4 4 5 7 8 7 6 6 7 9 9 12 15 14 12 10 8 5 3 3 2 6 14 7 11 13 15 14 17 18 17 16 16 15 17 21 23
5 6 3 2 4 5 6 7 9 8 8 8 8 9 9 6 7 7 6 7 10 7 4 6 5 4 3 2 2 5 8 9 13 14 14 13 11 11 12 12 13 14 16
5 4 4 5 6 5 8 7 4 5 5 5 7 8 6 4 3 4 4 6 4 3 5 6 6 6 9 4 5 8 8 7 7 8 8 10 11 11 13 12 12 14 17
5 5 4 3 2 2 4 5 6 7 7 6 6 7 8 6 4 3 4 4 4 5 2 1 5 7 8 8 7 7 4 2 6 13 10 9 10 11 13 16 17 20 21
1 4 4 3 5 5 3 0 2 2 1 1 4 7 9 7 6 5 5 4 5 4 3 2 7 10 11 12 12 12 13 17 17 14 16 14 15 19 22 26 27 27 25
4 1 1 1 4 6 6 6 4 5 6 5 4 4 4 4 6 6 9 7 7 6 6 5 9 13 15 17 19 19 21 23 22 19 21 24 26 28 30 30 28 27 26
5 5 5 1 3 6 5 4 5 4 2 4 7 7 6 6 5 1 2 3 6 5 9 10 8 7 8 10 16 23 26 26 27 29 33 30 22 25 30 30 34 27 25
4 2 4 5 5 6 8 7 5 6 4 4 3 7 8 10 7 6 8 9 10 9 7 7 4 8 10 6 10 12 16 16 19 23 24 24 22 22 24 26 25 22 21
2 4 4 4 7 9 9 6 4 3 6 2 3 6 10 7 8 10 11 13 12 14 13 13 11 11 13 13 14 14 17 17 18 19 21 27 26 28 25 25 26 20 17
5 4 4 3 8 8 5 2 1 3 4 5 5 4 5 3 3 13 15 14 8 9 12 14 16 13 12 17 21 23 22 22 24 23 22 27 26 33 33 35 32 33 28
5 7 7 4 5 9 8 5 3 2 1 9 8 7 11 13 13 15 14 17 19 18 11 13 16 19 21 20 21 24 27 23 24 25 23 28 20 23 19 21 27 33 32
8 6 4 3 1 8 9 7 6 4 7 10 16 15 18 12 14 15 15 20 26 26 16 11 16 21 25 28 25 16 21 20 20 19 16 22 21 28 26 23 22 19 20
6 2 4 4 6 7 8 10 11 10 7 10 10 13 17 15 15 14 18 23 25 18 15 22 19 12 13 21 20 20 19 25 23 24 15 20 21 18 20 18 14 12 16
Wind_Direction
264 255 255 257 240 254 258 255 259 272 259 268 265 264 265 265 245 246 252 258 243 254 260 249 242 250 243 236 234 227 223 214 218 213 211 215 218 215 216 225 224 230 223
243 243 258 257 255 258 278 265 261 264 269 274 260 248 267 270 242 243 263 256 262 262 269 242 259 235 246 245 242 237 232 226 217 218 212 213 215 219 218 227 228 224 229
254 247 263 264 266 257 259 260 267 271 271 261 258 265 266 266 264 274 262 259 266 268 265 260 238 238 239 245 248 241 236 231 216 217 214 212 213 217 220 221 228 229 230
267 262 270 298 276 259 261 257 253 265 265 273 265 260 262 263 270 272 265 265 262 263 261 255 256 237 236 238 247 240 237 234 219 213 216 220 217 220 224 223 225 225 223
278 274 279 306 312 275 258 262 258 269 266 259 256 261 262 274 270 274 274 269 268 264 267 259 255 238 241 244 244 238 229 232 214 213 218 224 224 226 228 229 226 228 228
276 277 283 286 286 284 276 263 268 269 275 264 275 277 284 276 278 274 274 273 271 263 260 257 247 237 236 235 239 233 230 225 214 218 221 220 227 229 230 233 232 231 236
271 275 284 279 270 277 287 268 273 281 274 267 270 275 282 289 290 285 279 286 280 262 251 259 243 239 251 234 230 232 233 223 218 216 222 224 230 236 232 232 233 235 236
276 278 270 270 269 268 261 269 266 277 283 264 278 284 299 298 286 315 291 290 282 269 260 250 250 247 253 230 219 219 231 225 226 222 224 235 235 236 231 230 233 234 238
283 278 270 267 270 277 277 276 281 282 281 276 274 258 267 258 292 317 305 296 296 285 267 260 259 259 255 246 209 215 211 221 217 226 226 225 232 236 232 229 230 232 237
297 299 278 256 278 278 289 292 274 284 275 283 272 270 257 268 290 317 309 309 285 297 294 291 259 248 242 255 252 212 219 237 222 219 218 227 226 226 231 233 231 230 233
304 299 289 239 276 300 294 298 293 293 295 294 282 283 279 285 297 281 293 310 299 302 305 279 272 241 224 235 237 187 216 212 224 223 222 224 226 228 231 233 235 236 236
311 294 285 307 317 293 283 287 300 302 299 299 300 291 283 263 279 291 289 309 305 312 338 287 290 262 277 236 235 227 218 223 220 218 220 228 229 232 230 236 238 239 239
320 322 313 297 313 305 300 285 291 304 317 332 327 298 295 293 289 280 291 302 298 307 303 330 294 268 277 210 236 236 229 218 213 224 222 225 227 232 234 234 234 237 238
274 289 321 335 341 344 340 346 353 360 3 360 358 335 310 297 298 289 294 292 293 299 276 273 298 15 117 33 203 210 216 219 220 228 221 227 228 232 235 240 244 243 243
267 306 33 25 37 66 75 51 28 29 34 19 1 336 336 322 320 313 316 314 290 297 277 265 196 213 198 196 93 141 186 225 218 199 197 206 220 230 236 240 246 254 255
253 80 74 43 18 37 92 102 103 20 30 24 8 14 25 22 356 348 360 10 19 293 281 271 230 223 215 191 173 179 185 154 188 223 232 235 240 254 259 256 262 265 262
132 134 168 187 248 19 63 65 59 42 21 11 23 358 359 6 354 321 294 285 307 328 52 228 226 219 202 190 184 182 187 142 252 230 232 246 259 264 269 274 278 281 274
155 132 95 321 345 350 28 325 293 53 25 9 343 332 346 8 5 355 340 336 313 295 291 219 208 205 217 221 236 219 213 215 227 238 228 241 259 268 285 286 283 280 279
140 48 10 17 344 352 350 354 357 341 338 340 9 340 325 350 355 12 4 5 358 354 356 316 267 256 259 262 254 241 239 237 245 259 267 268 273 272 278 283 284 282 278
189 212 250 128 8 350 322 335 8 354 354 322 308 328 358 2 5 94 339 331 340 14 351 348 345 339 328 291 273 264 252 252 255 260 267 272 265 262 268 279 284 285 283
222 289 349 348 55 283 271 293 294 304 290 295 321 352 359 1 20 354 339 343 343 333 305 274 286 320 328 340 328 319 304 296 281 271 263 251 251 267 277 263 266 276 279
349 344 357 312 256 259 285 294 230 345 6 50 360 344 332 324 353 335 353 350 353 343 341 329 317 284 275 289 270 261 264 273 281 270 271 258 253 252 249 248 245 261 268
294 295 271 254 295 314 328 349 156 88 302 308 334 335 53 328 263 313 326 339 336 317 321 322 316 317 305 290 289 286 283 280 274 271 271 279 267 266 260 257 252 245 255
294 308 307 305 286 320 340 347 333 243 282 284 297 290 313 301 299 315 319 328 333 328 304 290 291 292 285 283 282 289 294 298 293 286 279 281 295 295 295 272 260 256 258
305 310 312 327 311 303 332 341 342 330 328 305 314 294 305 277 277 289 305 320 324 325 319 297 282 273 276 283 287 285 290 294 291 294 286 285 300 284 283 277 274 267 268
314 114 314 312 303 283 315 331 329 330 321 314 311 323 321 267 269 291 316 326 324 327 313 311 309 311 319 312 299 284 286 285 284 287 278 293 291 295 310 267 274 282 273